Wind_Speed
54 54 54 54 56 58 59 60 61 62 64 65 67 68 70 70 71 71 72 71 70 69 67 66 64 63 60 58 59 59 55 52 53 50 52 48 46 48 48 48 47 45 49
53 54 55 56 58 59 61 63 64 65 65 66 66 67 68 69 70 71 72 73 74 74 72 72 70 71 68 66 65 62 60 58 56 54 53 51 50 48 47 46 47 44 46
55 57 58 60 62 62 62 62 62 64 65 66 68 69 69 70 72 73 74 74 74 75 76 75 73 74 73 72 71 69 64 63 61 59 56 53 54 49 48 45 44 43 42
58 60 61 60 59 59 60 61 63 64 66 66 65 65 67 71 75 76 76 77 78 79 79 78 78 77 76 76 74 73 70 68 67 66 61 56 56 54 47 46 45 42 39
60 59 59 59 58 59 58 59 59 59 57 57 59 60 62 62 67 72 75 76 75 71 74 79 81 83 82 81 79 77 76 74 71 71 67 61 57 57 49 48 46 42 39
56 54 54 53 52 50 52 52 51 52 54 57 58 59 58 58 61 66 71 73 69 63 65 66 66 71 76 79 80 80 78 78 74 72 72 66 59 59 57 50 46 43 39
49 47 44 43 43 47 48 50 51 54 56 59 61 62 62 64 64 65 70 75 72 61 60 58 61 64 66 66 69 69 73 76 76 73 73 69 66 61 60 52 48 44 42
41 40 40 41 43 46 49 50 53 56 56 56 55 56 56 58 60 65 64 56 54 56 59 64 65 66 63 64 69 67 63 66 66 69 68 66 69 64 64 55 51 48 43
37 38 40 41 44 47 49 52 54 54 55 53 52 52 53 56 57 54 48 48 52 55 60 64 69 71 70 64 61 60 64 61 61 62 63 64 56 60 63 59 53 52 44
36 38 40 43 45 47 50 52 54 53 50 49 48 50 50 50 55 48 40 44 34 38 40 44 44 55 58 63 61 56 58 61 58 59 67 69 72 61 61 61 56 53 48
37 39 41 44 46 48 49 49 47 46 46 46 47 46 44 47 51 51 37 43 37 39 33 34 32 36 49 55 51 59 53 58 60 63 65 68 62 60 64 62 58 57 49
38 40 42 44 44 44 43 42 43 43 43 43 43 42 42 44 43 53 33 30 31 23 23 19 11 14 20 31 49 47 57 60 61 62 59 68 52 59 62 58 61 60 52
38 39 39 39 37 37 37 37 36 37 38 40 40 39 37 39 40 42 37 29 21 18 20 22 11 10 8 17 36 44 52 56 59 45 54 72 43 55 67 69 68 69 64
33 32 30 29 29 31 33 35 37 37 36 36 35 34 36 35 35 40 25 29 24 18 22 15 15 8 6 21 31 17 34 43 49 52 58 57 50 53 56 62 66 62 53
23 24 25 27 30 33 36 36 37 39 40 39 39 34 31 31 32 33 25 20 22 16 13 13 10 9 20 9 23 30 24 30 39 41 46 51 47 49 62 60 65 55 59
26 29 32 35 37 39 40 40 41 41 41 41 40 36 33 29 27 27 31 21 7 13 13 11 9 10 11 14 18 31 35 25 32 36 46 46 50 57 54 55 54 46 46
32 35 37 39 39 40 41 42 43 45 45 42 40 38 33 28 25 24 24 24 25 9 8 13 13 14 16 18 22 22 23 26 25 24 22 25 30 34 33 33 38 44 47
37 38 38 39 41 43 45 46 46 46 42 40 39 38 35 29 24 21 21 19 18 19 18 4 11 19 20 21 24 25 27 29 28 26 26 28 30 29 29 29 30 32 38
36 38 40 43 44 44 44 43 42 40 38 36 35 36 35 30 26 21 18 17 16 15 12 12 13 7 5 13 20 25 25 24 25 27 27 27 28 28 27 27 26 29 30
39 37 40 39 41 43 42 40 38 36 34 33 33 32 29 28 26 22 19 17 15 14 13 10 8 7 6 7 7 6 4 4 6 8 13 17 18 15 15 17 20 23 26
37 40 43 40 44 46 42 39 36 33 31 30 31 27 26 23 23 22 18 17 16 14 13 12 9 7 6 6 7 7 8 9 10 11 13 14 13 14 17 21 23 25 26
32 40 39 37 46 43 40 36 33 30 29 27 26 27 23 22 21 20 20 18 16 14 13 12 11 10 8 8 8 8 8 10 12 12 14 14 15 18 21 24 26 28 28
36 41 38 41 40 38 35 32 31 30 29 26 24 22 22 20 18 17 17 17 16 16 15 13 11 12 11 10 9 9 9 10 12 14 15 16 18 20 23 25 26 27 28
38 38 38 36 34 32 30 29 29 29 28 25 23 20 19 18 17 15 15 15 14 14 14 14 14 13 12 11 11 12 12 13 14 16 17 18 19 20 21 23 24 24 25
36 33 32 31 29 27 27 28 29 29 29 27 24 21 18 16 16 14 14 14 13 13 13 13 13 11 10 11 13 13 13 13 14 14 15 16 17 19 20 21 22 23 24
30 28 28 28 27 27 27 28 29 29 28 28 26 22 20 17 15 14 13 12 12 13 13 14 12 11 11 12 13 12 11 11 11 13 14 15 16 17 18 19 20 21 22
Wind_Direction
284 285 284 284 283 284 285 285 284 283 283 282 282 281 280 279 278 277 276 275 275 274 273 271 268 268 266 263 263 263 262 262 263 266 272 278 275 279 285 290 294 299 298
284 284 285 285 287 287 287 287 286 285 283 281 280 278 276 276 275 274 273 273 273 271 270 269 269 268 267 266 264 262 262 259 262 265 268 272 273 275 282 289 293 299 299
287 288 289 289 289 289 288 287 287 286 286 286 285 283 280 278 276 275 274 272 269 268 268 266 265 264 264 263 262 262 260 258 258 259 264 267 269 272 277 283 289 296 294
289 290 290 290 289 289 289 289 288 288 288 287 287 286 284 283 280 277 273 271 270 269 266 264 263 262 260 260 258 257 257 256 256 256 259 262 265 269 272 279 285 288 288
290 290 290 290 290 291 291 291 293 292 291 290 289 289 288 287 285 284 281 278 274 271 267 264 260 259 257 256 256 256 254 253 252 254 255 257 260 265 270 272 277 282 288
288 289 292 293 292 291 292 292 292 292 292 291 290 291 290 291 289 291 291 288 284 274 264 258 259 259 257 255 254 253 253 252 251 251 251 254 255 260 263 266 270 277 280
292 294 292 291 291 293 294 295 299 298 297 295 294 293 292 292 294 293 291 292 287 278 271 264 261 258 255 254 251 251 249 248 249 247 249 251 252 254 258 259 263 266 268
291 291 293 296 298 301 303 303 302 300 299 299 298 298 298 293 291 290 296 288 282 283 274 269 265 258 252 250 247 250 249 245 244 243 245 248 249 247 253 254 257 259 262
293 295 298 299 303 303 304 304 303 301 303 303 303 304 304 301 294 304 293 284 288 284 275 266 261 257 253 248 245 243 240 242 240 235 235 242 234 242 245 250 252 252 255
292 295 298 299 301 303 305 305 305 306 307 306 306 307 311 310 310 314 308 301 286 305 302 281 268 254 249 248 241 236 234 234 237 231 228 233 243 234 240 242 242 247 248
294 297 299 302 304 304 306 308 310 311 311 311 310 312 316 318 323 323 322 313 294 299 292 283 281 262 247 247 236 230 234 232 229 228 228 229 225 228 230 239 240 244 245
298 301 303 306 308 309 311 312 313 314 313 313 314 318 319 322 327 324 325 322 311 308 293 314 285 245 240 226 221 218 228 230 227 227 223 235 231 239 224 240 240 240 241
300 303 306 308 311 313 315 316 318 316 315 314 315 318 319 322 328 330 322 325 328 324 322 316 290 176 255 203 213 227 226 227 229 225 233 231 258 245 248 229 237 238 242
304 306 310 313 317 320 322 324 323 324 324 321 320 318 321 324 332 340 322 318 323 318 310 309 302 248 253 204 230 235 224 234 231 232 235 229 250 249 246 243 234 239 243
313 315 317 317 319 321 322 324 328 330 329 328 328 324 319 322 329 333 343 299 305 313 313 305 272 269 275 254 218 218 221 229 232 234 222 232 243 249 246 253 237 237 241
320 319 320 319 318 317 318 319 320 323 325 326 325 326 325 321 327 335 337 346 293 285 287 272 256 243 232 264 217 215 222 244 229 225 227 240 250 252 256 248 237 234 240
320 320 319 318 316 316 316 317 318 319 319 319 319 322 322 321 321 329 332 340 344 353 233 260 242 220 213 211 212 217 221 226 217 214 215 225 235 236 235 233 230 232 235
318 317 317 317 317 316 315 316 315 315 314 313 313 316 319 319 317 321 327 329 336 336 354 2 228 239 239 231 230 228 224 225 226 231 236 233 226 224 223 222 225 230 239
314 317 320 320 316 314 312 313 313 313 313 312 311 312 314 314 314 312 317 320 323 333 334 333 345 353 221 215 224 231 232 233 237 237 234 228 226 225 228 233 237 239 243
317 317 321 319 323 316 311 312 313 313 312 311 311 310 307 306 306 308 306 312 314 317 327 328 315 306 309 322 326 325 325 289 262 236 226 224 222 222 235 242 244 245 247
310 315 318 316 320 320 319 318 319 319 317 316 314 314 307 301 299 301 298 298 305 308 312 318 322 319 308 289 275 270 261 257 257 251 246 241 239 242 246 246 247 248 253
302 316 316 310 317 321 322 323 323 324 324 321 317 316 313 305 301 298 298 295 294 294 299 304 308 313 310 297 285 276 270 266 264 265 267 267 265 260 257 256 257 257 259
307 313 307 307 315 319 323 325 328 329 327 323 320 317 314 310 303 296 293 291 289 291 294 295 296 303 306 306 305 294 284 279 276 272 268 264 262 262 262 261 262 263 262
310 308 309 311 315 321 324 327 329 331 332 330 325 320 316 312 307 300 294 288 282 280 283 288 295 301 303 304 301 296 290 284 279 273 269 267 266 266 266 266 265 263 260
308 310 312 313 317 321 324 327 330 332 334 334 331 324 317 313 307 301 300 292 283 280 280 283 287 289 290 293 295 296 292 287 282 276 271 268 265 261 260 258 256 254 252
305 309 311 314 318 319 322 325 329 331 332 333 333 331 324 312 305 301 298 294 287 284 284 285 283 282 286 289 288 283 278 273 270 270 270 268 264 262 261 259 256 254 250
Height
5774 5772 5769 5766 5763 5760 5757 5754 5752 5749 5746 5743 5740 5737 5734 5732 5729 5729 5728 5727 5727 5728 5730 5731 5734 5734 5736 5739 5740 5741 5744 5745 5747 5751 5749 5751 5755 5753 5753 5749 5747 5745 5737
5761 5759 5756 5753 5749 5745 5742 5737 5734 5730 5726 5723 5721 5717 5714 5712 5709 5707 5707 5706 5705 5706 5707 5709 5712 5712 5716 5719 5721 5724 5727 5730 5732 5734 5736 5738 5741 5741 5741 5738 5735 5730 5726
5747 5743 5741 5738 5733 5729 5725 5721 5716 5712 5707 5702 5699 5696 5693 5690 5687 5685 5683 5682 5683 5682 5683 5684 5688 5688 5693 5696 5699 5702 5708 5711 5715 5718 5720 5724 5726 5729 5729 5728 5726 5721 5717
5732 5729 5725 5721 5717 5713 5708 5703 5699 5694 5689 5684 5679 5674 5669 5665 5662 5659 5658 5658 5657 5657 5657 5659 5661 5664 5668 5670 5675 5680 5684 5689 5694 5698 5702 5709 5711 5714 5717 5717 5714 5711 5709
5717 5713 5710 5706 5701 5697 5692 5686 5680 5676 5671 5666 5661 5656 5650 5646 5639 5633 5630 5630 5630 5630 5630 5630 5633 5636 5640 5643 5648 5656 5660 5666 5673 5678 5684 5692 5696 5698 5704 5704 5703 5701 5701
5703 5699 5695 5691 5686 5682 5677 5673 5668 5663 5657 5652 5646 5640 5633 5627 5622 5614 5606 5602 5602 5602 5603 5603 5605 5608 5612 5615 5622 5629 5635 5643 5651 5659 5665 5673 5680 5685 5689 5692 5693 5692 5692
5690 5686 5682 5679 5675 5670 5666 5660 5655 5650 5644 5637 5631 5624 5617 5611 5604 5597 5589 5581 5575 5576 5576 5578 5582 5584 5587 5591 5597 5602 5609 5619 5628 5638 5646 5656 5663 5670 5674 5679 5681 5683 5681
5679 5675 5672 5668 5663 5658 5653 5648 5643 5635 5629 5622 5615 5608 5600 5592 5586 5578 5571 5561 5556 5554 5553 5552 5554 5559 5564 5570 5576 5582 5588 5597 5606 5615 5627 5637 5644 5653 5657 5666 5668 5671 5670
5670 5666 5662 5657 5653 5647 5641 5635 5630 5623 5615 5608 5601 5594 5586 5575 5567 5560 5553 5545 5538 5531 5528 5526 5527 5532 5539 5546 5553 5561 5568 5577 5588 5598 5607 5606 5622 5633 5640 5648 5654 5657 5658
5662 5658 5653 5649 5643 5637 5631 5624 5618 5610 5602 5595 5588 5580 5572 5562 5548 5544 5535 5525 5521 5514 5508 5502 5501 5504 5511 5520 5530 5542 5550 5560 5573 5582 5592 5598 5605 5615 5623 5629 5636 5641 5643
5654 5649 5645 5639 5634 5628 5621 5614 5606 5599 5592 5584 5577 5569 5561 5552 5538 5526 5521 5513 5507 5504 5498 5489 5485 5482 5490 5502 5513 5526 5537 5546 5555 5563 5573 5582 5582 5595 5602 5615 5620 5625 5631
5645 5640 5635 5630 5624 5617 5611 5604 5597 5590 5583 5576 5568 5560 5552 5544 5535 5520 5514 5507 5500 5496 5490 5485 5480 5477 5480 5489 5501 5513 5521 5531 5540 5549 5557 5565 5575 5581 5586 5597 5604 5611 5617
5637 5632 5627 5621 5615 5609 5603 5597 5591 5584 5576 5569 5562 5554 5548 5539 5530 5519 5509 5504 5499 5493 5490 5485 5481 5481 5479 5491 5497 5505 5512 5520 5530 5541 5546 5551 5561 5569 5577 5578 5587 5594 5601
5629 5625 5620 5614 5609 5603 5597 5590 5583 5576 5569 5562 5555 5548 5540 5534 5526 5517 5509 5501 5497 5491 5488 5486 5484 5484 5485 5489 5493 5497 5505 5512 5521 5528 5534 5542 5551 5557 5561 5569 5575 5583 5589
5623 5618 5613 5608 5603 5597 5590 5584 5578 5570 5562 5554 5548 5541 5536 5530 5522 5515 5507 5500 5495 5492 5488 5486 5485 5485 5485 5488 5490 5496 5501 5507 5515 5519 5526 5534 5538 5543 5550 5556 5560 5568 5576
5617 5612 5608 5602 5596 5590 5583 5577 5570 5565 5558 5551 5544 5536 5530 5525 5519 5512 5506 5499 5494 5491 5489 5486 5485 5485 5486 5488 5490 5493 5495 5502 5507 5511 5519 5525 5530 5534 5540 5541 5548 5554 5563
5611 5605 5600 5594 5588 5582 5575 5569 5563 5556 5548 5544 5537 5531 5525 5520 5515 5510 5505 5500 5494 5489 5487 5486 5485 5485 5486 5487 5488 5491 5495 5498 5502 5506 5510 5516 5520 5526 5529 5533 5538 5546 5553
5603 5598 5592 5586 5579 5572 5566 5560 5553 5546 5541 5534 5528 5523 5518 5514 5510 5506 5502 5499 5495 5491 5486 5484 5484 5484 5484 5486 5487 5489 5491 5495 5497 5499 5502 5508 5514 5517 5521 5525 5531 5536 5543
5595 5589 5582 5576 5569 5563 5556 5550 5544 5538 5531 5526 5522 5516 5510 5507 5504 5502 5500 5496 5493 5490 5487 5485 5483 5481 5481 5482 5484 5485 5487 5487 5490 5494 5498 5502 5507 5510 5513 5518 5523 5528 5534
5586 5582 5576 5569 5562 5555 5548 5541 5535 5529 5524 5518 5514 5509 5505 5500 5497 5496 5494 5493 5491 5488 5486 5484 5482 5482 5481 5481 5481 5481 5482 5484 5487 5490 5493 5497 5500 5501 5506 5511 5516 5522 5527
5577 5572 5568 5561 5554 5547 5540 5533 5527 5522 5517 5511 5506 5503 5498 5495 5492 5489 5488 5487 5486 5485 5483 5482 5481 5480 5479 5480 5480 5480 5481 5484 5487 5488 5491 5493 5493 5496 5501 5506 5510 5514 5516
5571 5565 5559 5553 5548 5540 5533 5527 5521 5516 5510 5506 5501 5496 5493 5490 5487 5485 5483 5481 5480 5480 5480 5478 5477 5477 5477 5477 5477 5477 5477 5478 5480 5482 5482 5482 5485 5489 5493 5497 5501 5504 5507
5565 5558 5554 5548 5541 5535 5529 5522 5516 5511 5505 5500 5496 5492 5488 5485 5483 5481 5479 5478 5476 5475 5474 5474 5474 5473 5472 5472 5472 5473 5473 5474 5474 5475 5477 5479 5481 5484 5487 5489 5491 5493 5496
5558 5552 5546 5541 5535 5530 5524 5518 5512 5506 5501 5496 5491 5487 5484 5480 5478 5476 5475 5474 5473 5472 5471 5470 5469 5468 5467 5467 5467 5468 5468 5468 5469 5470 5471 5472 5474 5475 5476 5478 5480 5483 5485
5550 5544 5539 5534 5529 5524 5519 5514 5508 5502 5497 5492 5487 5483 5480 5477 5474 5472 5470 5469 5468 5468 5468 5467 5467 5466 5466 5465 5464 5463 5463 5463 5463 5464 5464 5466 5467 5468 5469 5471 5473 5474 5476
5543 5538 5533 5528 5523 5519 5514 5509 5504 5498 5493 5487 5482 5478 5475 5472 5471 5469 5467 5465 5464 5463 5462 5462 5462 5463 5463 5463 5462 5461 5461 5461 5461 5461 5461 5461 5461 5462 5462 5463 5465 5467 5468